Tracking 25686 objects as of 26-May-2022
HD Live streaming from Space Station
objects crossing your sky now

OPS 4682 DEB

Track OPS 4682 DEB now!
10-day predictions


NORAD ID: 38378
Int'l Code: 1965-027CF
Perigee: 1,232.9 km
Apogee: 1,287.9 km
Inclination: 90.3 °
Period: 110.6 minutes
Semi major axis: 7631 km
RCS: 0.0101 m2 (small)
Launch date: April 3, 1965
Source: United States (US)
Launch site: AIR FORCE WESTERN TEST RANGE (AFWTR)

Note: This is SATELLITE DEBRIS
aabbcc
Your satellite tracking list
Your tracking list is empty




NASA's NSSDC Master Catalog

Two Line Element Set (TLE):
1 38378U 65027CF  22144.39373663 -.00000517  00000-0 -16836-2 0  9993
2 38378  90.2863 303.4801 0036032 171.5609 188.6128 13.02255177425683
Source of the keplerian elements: AFSPC